Location: Newark
(15.4608°S, 41.1635°W)
Time: 12:41:54
(UTC+00:00)

Explorer 7 - Visible Passes

Search period start: 07 March 2021 00:00
Search period end: 17 March 2021 00:00
Orbit: 484 x 677 km, 50.3° (Epoch: 06 March)

Date Brightness Start Highest point End Pass type
(mag) Time Alt. Az. Time Alt. Az. Time Alt. Az.
11 Mar 10.2 08:18:09 10° SSE 08:19:33 11° SE 08:20:57 10° ESE visible
12 Mar 9.7 08:20:49 10° S 08:24:13 20° SE 08:27:42 10° E visible
12 Mar 8.8 22:11:17 10° N 22:12:02 14° NNE 22:12:02 14° NNE visible
13 Mar 8.8 08:24:33 10° SSW 08:28:47 35° SE 08:33:09 10° ENE visible
13 Mar 7.1 22:14:57 10° NNW 22:17:58 41° NNE 22:17:58 41° NNE visible
14 Mar 6.6 22:19:15 10° NW 22:23:02 76° SW 22:23:53 50° SSE visible
15 Mar 9.9 06:55:11 10° SSE 06:57:07 12° SE 06:59:05 10° ESE visible
15 Mar 8.2 22:24:05 10° WNW 22:27:32 33° SW 22:29:42 18° S visible
16 Mar 9.3 06:58:31 11° S 07:01:45 22° SE 07:05:23 10° E visible
16 Mar 9.4 22:29:36 10° W 22:32:06 17° SW 22:34:37 10° S visible
